Index of /20260502/WXO-DD/model_rdps/10km/06/018
Name Last modified Size Description
Parent Directory -
20260502T06Z_MSC_RDPS_AbsoluteVorticity_IsbL-0250_RLatLon0.09_PT018H.grib2 2026-05-02 08:43 613K
20260502T06Z_MSC_RDPS_AbsoluteVorticity_IsbL-0500_RLatLon0.09_PT018H.grib2 2026-05-02 08:43 571K
20260502T06Z_MSC_RDPS_AbsoluteVorticity_IsbL-0700_RLatLon0.09_PT018H.grib2 2026-05-02 08:43 631K
20260502T06Z_MSC_RDPS_AbsoluteVorticity_IsbL-0850_RLatLon0.09_PT018H.grib2 2026-05-02 08:43 789K
20260502T06Z_MSC_RDPS_AirTemp_AGL-120m_RLatLon0.09_PT018H.grib2 2026-05-02 08:43 385K
20260502T06Z_MSC_RDPS_AirTemp_AGL-2m_RLatLon0.09_PT018H.grib2 2026-05-02 08:43 618K
20260502T06Z_MSC_RDPS_AirTemp_AGL-40m_RLatLon0.09_PT018H.grib2 2026-05-02 08:43 394K
20260502T06Z_MSC_RDPS_AirTemp_AGL-80m_RLatLon0.09_PT018H.grib2 2026-05-02 08:43 388K
20260502T06Z_MSC_RDPS_AirTemp_IsbL-0001_RLatLon0.09_PT018H.grib2 2026-05-02 08:43 303K
20260502T06Z_MSC_RDPS_AirTemp_IsbL-0005_RLatLon0.09_PT018H.grib2 2026-05-02 08:43 283K
20260502T06Z_MSC_RDPS_AirTemp_IsbL-0010_RLatLon0.09_PT018H.grib2 2026-05-02 08:43 293K
20260502T06Z_MSC_RDPS_AirTemp_IsbL-0020_RLatLon0.09_PT018H.grib2 2026-05-02 08:43 404K
20260502T06Z_MSC_RDPS_AirTemp_IsbL-0030_RLatLon0.09_PT018H.grib2 2026-05-02 08:43 333K
20260502T06Z_MSC_RDPS_AirTemp_IsbL-0050_RLatLon0.09_PT018H.grib2 2026-05-02 08:43 312K
20260502T06Z_MSC_RDPS_AirTemp_IsbL-0100_RLatLon0.09_PT018H.grib2 2026-05-02 08:43 387K
20260502T06Z_MSC_RDPS_AirTemp_IsbL-0150_RLatLon0.09_PT018H.grib2 2026-05-02 08:43 417K
20260502T06Z_MSC_RDPS_AirTemp_IsbL-0175_RLatLon0.09_PT018H.grib2 2026-05-02 08:43 409K
20260502T06Z_MSC_RDPS_AirTemp_IsbL-0200_RLatLon0.09_PT018H.grib2 2026-05-02 08:43 415K
20260502T06Z_MSC_RDPS_AirTemp_IsbL-0225_RLatLon0.09_PT018H.grib2 2026-05-02 08:43 415K
20260502T06Z_MSC_RDPS_AirTemp_IsbL-0250_RLatLon0.09_PT018H.grib2 2026-05-02 08:43 420K
20260502T06Z_MSC_RDPS_AirTemp_IsbL-0275_RLatLon0.09_PT018H.grib2 2026-05-02 08:43 403K
20260502T06Z_MSC_RDPS_AirTemp_IsbL-0300_RLatLon0.09_PT018H.grib2 2026-05-02 08:43 411K
20260502T06Z_MSC_RDPS_AirTemp_IsbL-0350_RLatLon0.09_PT018H.grib2 2026-05-02 08:43 426K
20260502T06Z_MSC_RDPS_AirTemp_IsbL-0400_RLatLon0.09_PT018H.grib2 2026-05-02 08:43 427K
20260502T06Z_MSC_RDPS_AirTemp_IsbL-0450_RLatLon0.09_PT018H.grib2 2026-05-02 08:43 401K
20260502T06Z_MSC_RDPS_AirTemp_IsbL-0500_RLatLon0.09_PT018H.grib2 2026-05-02 08:43 413K
20260502T06Z_MSC_RDPS_AirTemp_IsbL-0550_RLatLon0.09_PT018H.grib2 2026-05-02 08:43 431K
20260502T06Z_MSC_RDPS_AirTemp_IsbL-0600_RLatLon0.09_PT018H.grib2 2026-05-02 08:43 450K
20260502T06Z_MSC_RDPS_AirTemp_IsbL-0650_RLatLon0.09_PT018H.grib2 2026-05-02 08:43 466K
20260502T06Z_MSC_RDPS_AirTemp_IsbL-0700_RLatLon0.09_PT018H.grib2 2026-05-02 08:43 383K
20260502T06Z_MSC_RDPS_AirTemp_IsbL-0750_RLatLon0.09_PT018H.grib2 2026-05-02 08:43 410K
20260502T06Z_MSC_RDPS_AirTemp_IsbL-0800_RLatLon0.09_PT018H.grib2 2026-05-02 08:43 445K
20260502T06Z_MSC_RDPS_AirTemp_IsbL-0850_RLatLon0.09_PT018H.grib2 2026-05-02 08:43 494K
20260502T06Z_MSC_RDPS_AirTemp_IsbL-0875_RLatLon0.09_PT018H.grib2 2026-05-02 08:43 514K
20260502T06Z_MSC_RDPS_AirTemp_IsbL-0900_RLatLon0.09_PT018H.grib2 2026-05-02 08:43 522K
20260502T06Z_MSC_RDPS_AirTemp_IsbL-0925_RLatLon0.09_PT018H.grib2 2026-05-02 08:43 516K
20260502T06Z_MSC_RDPS_AirTemp_IsbL-0950_RLatLon0.09_PT018H.grib2 2026-05-02 08:43 516K
20260502T06Z_MSC_RDPS_AirTemp_IsbL-0970_RLatLon0.09_PT018H.grib2 2026-05-02 08:43 514K
20260502T06Z_MSC_RDPS_AirTemp_IsbL-0985_RLatLon0.09_PT018H.grib2 2026-05-02 08:43 504K
20260502T06Z_MSC_RDPS_AirTemp_IsbL-1000_RLatLon0.09_PT018H.grib2 2026-05-02 08:43 489K
20260502T06Z_MSC_RDPS_AirTemp_IsbL-1015_RLatLon0.09_PT018H.grib2 2026-05-02 08:43 487K
20260502T06Z_MSC_RDPS_Albedo_Sfc_RLatLon0.09_PT018H.grib2 2026-05-02 08:43 156K
20260502T06Z_MSC_RDPS_CAPE_Sfc_RLatLon0.09_PT018H.grib2 2026-05-02 08:43 1.7M
20260502T06Z_MSC_RDPS_CIN_Sfc_RLatLon0.09_PT018H.grib2 2026-05-02 08:43 1.3M
20260502T06Z_MSC_RDPS_CloudWater_EAtm_RLatLon0.09_PT018H.grib2 2026-05-02 08:43 223K
20260502T06Z_MSC_RDPS_ConvectivePrecip-Accum_Sfc_RLatLon0.09_PT018H.grib2 2026-05-02 08:43 759K
20260502T06Z_MSC_RDPS_DewPointDepression_AGL-2m_RLatLon0.09_PT018H.grib2 2026-05-02 08:43 413K
20260502T06Z_MSC_RDPS_DewPointDepression_IsbL-0001_RLatLon0.09_PT018H.grib2 2026-05-02 08:43 193
20260502T06Z_MSC_RDPS_DewPointDepression_IsbL-0005_RLatLon0.09_PT018H.grib2 2026-05-02 08:43 193
20260502T06Z_MSC_RDPS_DewPointDepression_IsbL-0010_RLatLon0.09_PT018H.grib2 2026-05-02 08:43 193
20260502T06Z_MSC_RDPS_DewPointDepression_IsbL-0020_RLatLon0.09_PT018H.grib2 2026-05-02 08:43 193
20260502T06Z_MSC_RDPS_DewPointDepression_IsbL-0030_RLatLon0.09_PT018H.grib2 2026-05-02 08:43 193
20260502T06Z_MSC_RDPS_DewPointDepression_IsbL-0050_RLatLon0.09_PT018H.grib2 2026-05-02 08:43 77K
20260502T06Z_MSC_RDPS_DewPointDepression_IsbL-0100_RLatLon0.09_PT018H.grib2 2026-05-02 08:43 121K
20260502T06Z_MSC_RDPS_DewPointDepression_IsbL-0150_RLatLon0.09_PT018H.grib2 2026-05-02 08:43 151K
20260502T06Z_MSC_RDPS_DewPointDepression_IsbL-0175_RLatLon0.09_PT018H.grib2 2026-05-02 08:43 187K
20260502T06Z_MSC_RDPS_DewPointDepression_IsbL-0200_RLatLon0.09_PT018H.grib2 2026-05-02 08:43 220K
20260502T06Z_MSC_RDPS_DewPointDepression_IsbL-0225_RLatLon0.09_PT018H.grib2 2026-05-02 08:43 260K
20260502T06Z_MSC_RDPS_DewPointDepression_IsbL-0250_RLatLon0.09_PT018H.grib2 2026-05-02 08:43 298K
20260502T06Z_MSC_RDPS_DewPointDepression_IsbL-0275_RLatLon0.09_PT018H.grib2 2026-05-02 08:43 310K
20260502T06Z_MSC_RDPS_DewPointDepression_IsbL-0300_RLatLon0.09_PT018H.grib2 2026-05-02 08:43 328K
20260502T06Z_MSC_RDPS_DewPointDepression_IsbL-0350_RLatLon0.09_PT018H.grib2 2026-05-02 08:43 335K
20260502T06Z_MSC_RDPS_DewPointDepression_IsbL-0400_RLatLon0.09_PT018H.grib2 2026-05-02 08:43 345K
20260502T06Z_MSC_RDPS_DewPointDepression_IsbL-0450_RLatLon0.09_PT018H.grib2 2026-05-02 08:43 349K
20260502T06Z_MSC_RDPS_DewPointDepression_IsbL-0500_RLatLon0.09_PT018H.grib2 2026-05-02 08:43 357K
20260502T06Z_MSC_RDPS_DewPointDepression_IsbL-0550_RLatLon0.09_PT018H.grib2 2026-05-02 08:43 370K
20260502T06Z_MSC_RDPS_DewPointDepression_IsbL-0600_RLatLon0.09_PT018H.grib2 2026-05-02 08:43 381K
20260502T06Z_MSC_RDPS_DewPointDepression_IsbL-0650_RLatLon0.09_PT018H.grib2 2026-05-02 08:43 391K
20260502T06Z_MSC_RDPS_DewPointDepression_IsbL-0700_RLatLon0.09_PT018H.grib2 2026-05-02 08:43 402K
20260502T06Z_MSC_RDPS_DewPointDepression_IsbL-0750_RLatLon0.09_PT018H.grib2 2026-05-02 08:43 416K
20260502T06Z_MSC_RDPS_DewPointDepression_IsbL-0800_RLatLon0.09_PT018H.grib2 2026-05-02 08:43 443K
20260502T06Z_MSC_RDPS_DewPointDepression_IsbL-0850_RLatLon0.09_PT018H.grib2 2026-05-02 08:43 472K
20260502T06Z_MSC_RDPS_DewPointDepression_IsbL-0875_RLatLon0.09_PT018H.grib2 2026-05-02 08:43 476K
20260502T06Z_MSC_RDPS_DewPointDepression_IsbL-0900_RLatLon0.09_PT018H.grib2 2026-05-02 08:43 464K
20260502T06Z_MSC_RDPS_DewPointDepression_IsbL-0925_RLatLon0.09_PT018H.grib2 2026-05-02 08:43 448K
20260502T06Z_MSC_RDPS_DewPointDepression_IsbL-0950_RLatLon0.09_PT018H.grib2 2026-05-02 08:43 441K
20260502T06Z_MSC_RDPS_DewPointDepression_IsbL-0970_RLatLon0.09_PT018H.grib2 2026-05-02 08:43 434K
20260502T06Z_MSC_RDPS_DewPointDepression_IsbL-0985_RLatLon0.09_PT018H.grib2 2026-05-02 08:43 429K
20260502T06Z_MSC_RDPS_DewPointDepression_IsbL-1000_RLatLon0.09_PT018H.grib2 2026-05-02 08:43 424K
20260502T06Z_MSC_RDPS_DewPointDepression_IsbL-1015_RLatLon0.09_PT018H.grib2 2026-05-02 08:43 415K
20260502T06Z_MSC_RDPS_DewPoint_AGL-2m_RLatLon0.09_PT018H.grib2 2026-05-02 08:43 309K
20260502T06Z_MSC_RDPS_DownwardLongwaveRadiationFlux-Accum_Sfc_RLatLon0.09_PT018H.grib2 2026-05-02 08:43 403K
20260502T06Z_MSC_RDPS_DownwardShortwaveRadiationFlux-Accum_NTAtm_RLatLon0.09_PT018H.grib2 2026-05-02 08:43 110K
20260502T06Z_MSC_RDPS_DownwardShortwaveRadiationFlux-Accum_Sfc_RLatLon0.09_PT018H.grib2 2026-05-02 08:43 611K
20260502T06Z_MSC_RDPS_FreezingRain-Accum12h_Sfc_RLatLon0.09_PT018H.grib2 2026-05-02 08:43 54K
20260502T06Z_MSC_RDPS_FreezingRain-Accum1h_Sfc_RLatLon0.09_PT018H.grib2 2026-05-02 08:43 17K
20260502T06Z_MSC_RDPS_FreezingRain-Accum3h_Sfc_RLatLon0.09_PT018H.grib2 2026-05-02 08:43 18K
20260502T06Z_MSC_RDPS_FreezingRain-Accum6h_Sfc_RLatLon0.09_PT018H.grib2 2026-05-02 08:43 23K
20260502T06Z_MSC_RDPS_FreezingRain-Accum_Sfc_RLatLon0.09_PT018H.grib2 2026-05-02 08:43 84K
20260502T06Z_MSC_RDPS_GeopotentialHeight_IsbL-0001_RLatLon0.09_PT018H.grib2 2026-05-02 08:43 311K
20260502T06Z_MSC_RDPS_GeopotentialHeight_IsbL-0005_RLatLon0.09_PT018H.grib2 2026-05-02 08:43 333K
20260502T06Z_MSC_RDPS_GeopotentialHeight_IsbL-0010_RLatLon0.09_PT018H.grib2 2026-05-02 08:43 300K
20260502T06Z_MSC_RDPS_GeopotentialHeight_IsbL-0020_RLatLon0.09_PT018H.grib2 2026-05-02 08:43 300K
20260502T06Z_MSC_RDPS_GeopotentialHeight_IsbL-0030_RLatLon0.09_PT018H.grib2 2026-05-02 08:43 302K
20260502T06Z_MSC_RDPS_GeopotentialHeight_IsbL-0050_RLatLon0.09_PT018H.grib2 2026-05-02 08:43 305K
20260502T06Z_MSC_RDPS_GeopotentialHeight_IsbL-0100_RLatLon0.09_PT018H.grib2 2026-05-02 08:43 284K
20260502T06Z_MSC_RDPS_GeopotentialHeight_IsbL-0150_RLatLon0.09_PT018H.grib2 2026-05-02 08:43 229K
20260502T06Z_MSC_RDPS_GeopotentialHeight_IsbL-0175_RLatLon0.09_PT018H.grib2 2026-05-02 08:43 263K
20260502T06Z_MSC_RDPS_GeopotentialHeight_IsbL-0200_RLatLon0.09_PT018H.grib2 2026-05-02 08:43 265K
20260502T06Z_MSC_RDPS_GeopotentialHeight_IsbL-0225_RLatLon0.09_PT018H.grib2 2026-05-02 08:43 265K
20260502T06Z_MSC_RDPS_GeopotentialHeight_IsbL-0250_RLatLon0.09_PT018H.grib2 2026-05-02 08:43 266K
20260502T06Z_MSC_RDPS_GeopotentialHeight_IsbL-0275_RLatLon0.09_PT018H.grib2 2026-05-02 08:43 264K
20260502T06Z_MSC_RDPS_GeopotentialHeight_IsbL-0300_RLatLon0.09_PT018H.grib2 2026-05-02 08:43 264K
20260502T06Z_MSC_RDPS_GeopotentialHeight_IsbL-0350_RLatLon0.09_PT018H.grib2 2026-05-02 08:43 229K
20260502T06Z_MSC_RDPS_GeopotentialHeight_IsbL-0400_RLatLon0.09_PT018H.grib2 2026-05-02 08:43 228K
20260502T06Z_MSC_RDPS_GeopotentialHeight_IsbL-0450_RLatLon0.09_PT018H.grib2 2026-05-02 08:43 296K
20260502T06Z_MSC_RDPS_GeopotentialHeight_IsbL-0500_RLatLon0.09_PT018H.grib2 2026-05-02 08:43 293K
20260502T06Z_MSC_RDPS_GeopotentialHeight_IsbL-0550_RLatLon0.09_PT018H.grib2 2026-05-02 08:43 290K
20260502T06Z_MSC_RDPS_GeopotentialHeight_IsbL-0600_RLatLon0.09_PT018H.grib2 2026-05-02 08:43 286K
20260502T06Z_MSC_RDPS_GeopotentialHeight_IsbL-0650_RLatLon0.09_PT018H.grib2 2026-05-02 08:43 257K
20260502T06Z_MSC_RDPS_GeopotentialHeight_IsbL-0700_RLatLon0.09_PT018H.grib2 2026-05-02 08:43 257K
20260502T06Z_MSC_RDPS_GeopotentialHeight_IsbL-0750_RLatLon0.09_PT018H.grib2 2026-05-02 08:43 340K
20260502T06Z_MSC_RDPS_GeopotentialHeight_IsbL-0800_RLatLon0.09_PT018H.grib2 2026-05-02 08:43 345K
20260502T06Z_MSC_RDPS_GeopotentialHeight_IsbL-0850_RLatLon0.09_PT018H.grib2 2026-05-02 08:43 353K
20260502T06Z_MSC_RDPS_GeopotentialHeight_IsbL-0875_RLatLon0.09_PT018H.grib2 2026-05-02 08:43 353K
20260502T06Z_MSC_RDPS_GeopotentialHeight_IsbL-0900_RLatLon0.09_PT018H.grib2 2026-05-02 08:43 359K
20260502T06Z_MSC_RDPS_GeopotentialHeight_IsbL-0925_RLatLon0.09_PT018H.grib2 2026-05-02 08:43 360K
20260502T06Z_MSC_RDPS_GeopotentialHeight_IsbL-0950_RLatLon0.09_PT018H.grib2 2026-05-02 08:43 365K
20260502T06Z_MSC_RDPS_GeopotentialHeight_IsbL-0970_RLatLon0.09_PT018H.grib2 2026-05-02 08:43 370K
20260502T06Z_MSC_RDPS_GeopotentialHeight_IsbL-0985_RLatLon0.09_PT018H.grib2 2026-05-02 08:43 378K
20260502T06Z_MSC_RDPS_GeopotentialHeight_IsbL-1000_RLatLon0.09_PT018H.grib2 2026-05-02 08:43 389K
20260502T06Z_MSC_RDPS_GeopotentialHeight_IsbL-1015_RLatLon0.09_PT018H.grib2 2026-05-02 08:43 402K
20260502T06Z_MSC_RDPS_Humidex_Sfc_RLatLon0.09_PT018H.grib2 2026-05-02 08:43 2.4M
20260502T06Z_MSC_RDPS_IcePellets-Accum12h_Sfc_RLatLon0.09_PT018H.grib2 2026-05-02 08:43 14K
20260502T06Z_MSC_RDPS_IcePellets-Accum1h_Sfc_RLatLon0.09_PT018H.grib2 2026-05-02 08:43 4.5K
20260502T06Z_MSC_RDPS_IcePellets-Accum3h_Sfc_RLatLon0.09_PT018H.grib2 2026-05-02 08:43 6.6K
20260502T06Z_MSC_RDPS_IcePellets-Accum6h_Sfc_RLatLon0.09_PT018H.grib2 2026-05-02 08:43 9.6K
20260502T06Z_MSC_RDPS_IcePellets-Accum_Sfc_RLatLon0.09_PT018H.grib2 2026-05-02 08:43 15K
20260502T06Z_MSC_RDPS_KIndex_Sfc_RLatLon0.09_PT018H.grib2 2026-05-02 08:43 2.4M
20260502T06Z_MSC_RDPS_LatentHeatNetFlux_Sfc_RLatLon0.09_PT018H.grib2 2026-05-02 08:43 270K
20260502T06Z_MSC_RDPS_LiftedIndex-MU-VT_IsbL-0500_RLatLon0.09_PT018H.grib2 2026-05-02 08:43 2.4M
20260502T06Z_MSC_RDPS_NetLongwaveRadiationFlux-Accum_Sfc_RLatLon0.09_PT018H.grib2 2026-05-02 08:43 545K
20260502T06Z_MSC_RDPS_NetShortwaveRadiationFlux-Accum_Sfc_RLatLon0.09_PT018H.grib2 2026-05-02 08:43 611K
20260502T06Z_MSC_RDPS_PlanetaryBoundaryLayerHeight_Sfc_RLatLon0.09_PT018H.grib2 2026-05-02 08:43 1.0M
20260502T06Z_MSC_RDPS_Precip-Accum12h_Sfc_RLatLon0.09_PT018H.grib2 2026-05-02 08:43 1.6M
20260502T06Z_MSC_RDPS_Precip-Accum1h_Sfc_RLatLon0.09_PT018H.grib2 2026-05-02 08:43 1.2M
20260502T06Z_MSC_RDPS_Precip-Accum3h_Sfc_RLatLon0.09_PT018H.grib2 2026-05-02 08:43 1.3M
20260502T06Z_MSC_RDPS_Precip-Accum6h_Sfc_RLatLon0.09_PT018H.grib2 2026-05-02 08:43 1.5M
20260502T06Z_MSC_RDPS_Precip-Accum_Sfc_RLatLon0.09_PT018H.grib2 2026-05-02 08:43 1.7M
20260502T06Z_MSC_RDPS_PrecipRate_Sfc_RLatLon0.09_PT018H.grib2 2026-05-02 08:43 163K
20260502T06Z_MSC_RDPS_PrecipType-Instant_Sfc_RLatLon0.09_PT018H.grib2 2026-05-02 08:43 582K
20260502T06Z_MSC_RDPS_Pressure-Trend3h_Sfc_RLatLon0.09_PT018H.grib2 2026-05-02 08:43 1.2M
20260502T06Z_MSC_RDPS_Pressure_MSL_RLatLon0.09_PT018H.grib2 2026-05-02 08:43 323K
20260502T06Z_MSC_RDPS_Pressure_PVU-1.5_RLatLon0.09_PT018H.grib2 2026-05-02 08:43 2.5M
20260502T06Z_MSC_RDPS_Pressure_PVU-1_RLatLon0.09_PT018H.grib2 2026-05-02 08:43 2.4M
20260502T06Z_MSC_RDPS_Pressure_PVU-2_RLatLon0.09_PT018H.grib2 2026-05-02 08:43 2.4M
20260502T06Z_MSC_RDPS_Pressure_Sfc_RLatLon0.09_PT018H.grib2 2026-05-02 08:43 498K
20260502T06Z_MSC_RDPS_RadiativeTemp_Sfc_RLatLon0.09_PT018H.grib2 2026-05-02 08:43 311K
20260502T06Z_MSC_RDPS_Rain-Accum12h_Sfc_RLatLon0.09_PT018H.grib2 2026-05-02 08:43 1.1M
20260502T06Z_MSC_RDPS_Rain-Accum1h_Sfc_RLatLon0.09_PT018H.grib2 2026-05-02 08:43 535K
20260502T06Z_MSC_RDPS_Rain-Accum3h_Sfc_RLatLon0.09_PT018H.grib2 2026-05-02 08:43 618K
20260502T06Z_MSC_RDPS_Rain-Accum6h_Sfc_RLatLon0.09_PT018H.grib2 2026-05-02 08:43 1.0M
20260502T06Z_MSC_RDPS_Rain-Accum_Sfc_RLatLon0.09_PT018H.grib2 2026-05-02 08:43 1.3M
20260502T06Z_MSC_RDPS_RelativeHumidity_AGL-2m_RLatLon0.09_PT018H.grib2 2026-05-02 08:43 1.0M
20260502T06Z_MSC_RDPS_RelativeHumidity_IsbL-0010_RLatLon0.09_PT018H.grib2 2026-05-02 08:43 630K
20260502T06Z_MSC_RDPS_RelativeHumidity_IsbL-0020_RLatLon0.09_PT018H.grib2 2026-05-02 08:43 669K
20260502T06Z_MSC_RDPS_RelativeHumidity_IsbL-0030_RLatLon0.09_PT018H.grib2 2026-05-02 08:43 602K
20260502T06Z_MSC_RDPS_RelativeHumidity_IsbL-0050_RLatLon0.09_PT018H.grib2 2026-05-02 08:43 360K
20260502T06Z_MSC_RDPS_RelativeHumidity_IsbL-0100_RLatLon0.09_PT018H.grib2 2026-05-02 08:43 278K
20260502T06Z_MSC_RDPS_RelativeHumidity_IsbL-0150_RLatLon0.09_PT018H.grib2 2026-05-02 08:43 412K
20260502T06Z_MSC_RDPS_RelativeHumidity_IsbL-0175_RLatLon0.09_PT018H.grib2 2026-05-02 08:43 476K
20260502T06Z_MSC_RDPS_RelativeHumidity_IsbL-0200_RLatLon0.09_PT018H.grib2 2026-05-02 08:43 548K
20260502T06Z_MSC_RDPS_RelativeHumidity_IsbL-0225_RLatLon0.09_PT018H.grib2 2026-05-02 08:43 615K
20260502T06Z_MSC_RDPS_RelativeHumidity_IsbL-0250_RLatLon0.09_PT018H.grib2 2026-05-02 08:43 682K
20260502T06Z_MSC_RDPS_RelativeHumidity_IsbL-0275_RLatLon0.09_PT018H.grib2 2026-05-02 08:43 707K
20260502T06Z_MSC_RDPS_RelativeHumidity_IsbL-0300_RLatLon0.09_PT018H.grib2 2026-05-02 08:43 749K
20260502T06Z_MSC_RDPS_RelativeHumidity_IsbL-0350_RLatLon0.09_PT018H.grib2 2026-05-02 08:43 776K
20260502T06Z_MSC_RDPS_RelativeHumidity_IsbL-0400_RLatLon0.09_PT018H.grib2 2026-05-02 08:43 789K
20260502T06Z_MSC_RDPS_RelativeHumidity_IsbL-0450_RLatLon0.09_PT018H.grib2 2026-05-02 08:43 793K
20260502T06Z_MSC_RDPS_RelativeHumidity_IsbL-0500_RLatLon0.09_PT018H.grib2 2026-05-02 08:43 801K
20260502T06Z_MSC_RDPS_RelativeHumidity_IsbL-0550_RLatLon0.09_PT018H.grib2 2026-05-02 08:43 822K
20260502T06Z_MSC_RDPS_RelativeHumidity_IsbL-0600_RLatLon0.09_PT018H.grib2 2026-05-02 08:43 845K
20260502T06Z_MSC_RDPS_RelativeHumidity_IsbL-0650_RLatLon0.09_PT018H.grib2 2026-05-02 08:43 862K
20260502T06Z_MSC_RDPS_RelativeHumidity_IsbL-0700_RLatLon0.09_PT018H.grib2 2026-05-02 08:43 887K
20260502T06Z_MSC_RDPS_RelativeHumidity_IsbL-0750_RLatLon0.09_PT018H.grib2 2026-05-02 08:43 932K
20260502T06Z_MSC_RDPS_RelativeHumidity_IsbL-0800_RLatLon0.09_PT018H.grib2 2026-05-02 08:43 1.0M
20260502T06Z_MSC_RDPS_RelativeHumidity_IsbL-0850_RLatLon0.09_PT018H.grib2 2026-05-02 08:43 1.0M
20260502T06Z_MSC_RDPS_RelativeHumidity_IsbL-0875_RLatLon0.09_PT018H.grib2 2026-05-02 08:43 1.1M
20260502T06Z_MSC_RDPS_RelativeHumidity_IsbL-0900_RLatLon0.09_PT018H.grib2 2026-05-02 08:43 1.1M
20260502T06Z_MSC_RDPS_RelativeHumidity_IsbL-0925_RLatLon0.09_PT018H.grib2 2026-05-02 08:43 1.1M
20260502T06Z_MSC_RDPS_RelativeHumidity_IsbL-0950_RLatLon0.09_PT018H.grib2 2026-05-02 08:43 1.1M
20260502T06Z_MSC_RDPS_RelativeHumidity_IsbL-0970_RLatLon0.09_PT018H.grib2 2026-05-02 08:43 1.0M
20260502T06Z_MSC_RDPS_RelativeHumidity_IsbL-0985_RLatLon0.09_PT018H.grib2 2026-05-02 08:43 1.0M
20260502T06Z_MSC_RDPS_RelativeHumidity_IsbL-1000_RLatLon0.09_PT018H.grib2 2026-05-02 08:43 1.0M
20260502T06Z_MSC_RDPS_RelativeHumidity_IsbL-1015_RLatLon0.09_PT018H.grib2 2026-05-02 08:43 1.0M
20260502T06Z_MSC_RDPS_Runoff-Accum_Sfc_RLatLon0.09_PT018H.grib2 2026-05-02 08:43 65K
20260502T06Z_MSC_RDPS_SWEATIndex_Sfc_RLatLon0.09_PT018H.grib2 2026-05-02 08:43 2.4M
20260502T06Z_MSC_RDPS_SeeingIndex_EAtm_RLatLon0.09_PT018H.grib2 2026-05-02 08:43 1.0M
20260502T06Z_MSC_RDPS_SensibleHeatNetFlux_Sfc_RLatLon0.09_PT018H.grib2 2026-05-02 08:43 312K
20260502T06Z_MSC_RDPS_ShowalterIndex_IsbL-0500_RLatLon0.09_PT018H.grib2 2026-05-02 08:43 2.6M
20260502T06Z_MSC_RDPS_SkyTransparencyIndex_EAtm_RLatLon0.09_PT018H.grib2 2026-05-02 08:43 708K
20260502T06Z_MSC_RDPS_Snow-Accum12h_Sfc_RLatLon0.09_PT018H.grib2 2026-05-02 08:43 549K
20260502T06Z_MSC_RDPS_Snow-Accum1h_Sfc_RLatLon0.09_PT018H.grib2 2026-05-02 08:43 445K
20260502T06Z_MSC_RDPS_Snow-Accum3h_Sfc_RLatLon0.09_PT018H.grib2 2026-05-02 08:43 444K
20260502T06Z_MSC_RDPS_Snow-Accum6h_Sfc_RLatLon0.09_PT018H.grib2 2026-05-02 08:43 530K
20260502T06Z_MSC_RDPS_Snow-Accum_Sfc_RLatLon0.09_PT018H.grib2 2026-05-02 08:43 644K
20260502T06Z_MSC_RDPS_SnowDensity_Sfc_RLatLon0.09_PT018H.grib2 2026-05-02 08:43 170K
20260502T06Z_MSC_RDPS_SnowDepth_Sfc_RLatLon0.09_PT018H.grib2 2026-05-02 08:43 658K
20260502T06Z_MSC_RDPS_SoilTemp_DBS-0to10cm_RLatLon0.09_PT018H.grib2 2026-05-02 08:43 225K
20260502T06Z_MSC_RDPS_SoilTemp_Sfc_RLatLon0.09_PT018H.grib2 2026-05-02 08:43 272K
20260502T06Z_MSC_RDPS_SoilVolumetricIceContent_Sfc_RLatLon0.09_PT018H.grib2 2026-05-02 08:43 158K
20260502T06Z_MSC_RDPS_SoilVolumetricWaterContent_DBS-0to10cm_RLatLon0.09_PT018H.grib2 2026-05-02 08:43 272K
20260502T06Z_MSC_RDPS_SoilVolumetricWaterContent_DBS-0to1cm_RLatLon0.09_PT018H.grib2 2026-05-02 08:43 339K
20260502T06Z_MSC_RDPS_SpecificHumidity_AGL-120m_RLatLon0.09_PT018H.grib2 2026-05-02 08:43 488K
20260502T06Z_MSC_RDPS_SpecificHumidity_AGL-2m_RLatLon0.09_PT018H.grib2 2026-05-02 08:43 657K
20260502T06Z_MSC_RDPS_SpecificHumidity_AGL-40m_RLatLon0.09_PT018H.grib2 2026-05-02 08:43 494K
20260502T06Z_MSC_RDPS_SpecificHumidity_AGL-80m_RLatLon0.09_PT018H.grib2 2026-05-02 08:43 489K
20260502T06Z_MSC_RDPS_SpecificHumidity_IsbL-0001_RLatLon0.09_PT018H.grib2 2026-05-02 08:43 402K
20260502T06Z_MSC_RDPS_SpecificHumidity_IsbL-0005_RLatLon0.09_PT018H.grib2 2026-05-02 08:43 363K
20260502T06Z_MSC_RDPS_SpecificHumidity_IsbL-0010_RLatLon0.09_PT018H.grib2 2026-05-02 08:43 395K
20260502T06Z_MSC_RDPS_SpecificHumidity_IsbL-0020_RLatLon0.09_PT018H.grib2 2026-05-02 08:43 379K
20260502T06Z_MSC_RDPS_SpecificHumidity_IsbL-0030_RLatLon0.09_PT018H.grib2 2026-05-02 08:43 372K
20260502T06Z_MSC_RDPS_SpecificHumidity_IsbL-0050_RLatLon0.09_PT018H.grib2 2026-05-02 08:43 488K
20260502T06Z_MSC_RDPS_SpecificHumidity_IsbL-0100_RLatLon0.09_PT018H.grib2 2026-05-02 08:43 422K
20260502T06Z_MSC_RDPS_SpecificHumidity_IsbL-0150_RLatLon0.09_PT018H.grib2 2026-05-02 08:43 454K
20260502T06Z_MSC_RDPS_SpecificHumidity_IsbL-0175_RLatLon0.09_PT018H.grib2 2026-05-02 08:43 438K
20260502T06Z_MSC_RDPS_SpecificHumidity_IsbL-0200_RLatLon0.09_PT018H.grib2 2026-05-02 08:43 449K
20260502T06Z_MSC_RDPS_SpecificHumidity_IsbL-0225_RLatLon0.09_PT018H.grib2 2026-05-02 08:43 453K
20260502T06Z_MSC_RDPS_SpecificHumidity_IsbL-0250_RLatLon0.09_PT018H.grib2 2026-05-02 08:43 517K
20260502T06Z_MSC_RDPS_SpecificHumidity_IsbL-0275_RLatLon0.09_PT018H.grib2 2026-05-02 08:43 477K
20260502T06Z_MSC_RDPS_SpecificHumidity_IsbL-0300_RLatLon0.09_PT018H.grib2 2026-05-02 08:43 451K
20260502T06Z_MSC_RDPS_SpecificHumidity_IsbL-0350_RLatLon0.09_PT018H.grib2 2026-05-02 08:43 572K
20260502T06Z_MSC_RDPS_SpecificHumidity_IsbL-0400_RLatLon0.09_PT018H.grib2 2026-05-02 08:43 527K
20260502T06Z_MSC_RDPS_SpecificHumidity_IsbL-0450_RLatLon0.09_PT018H.grib2 2026-05-02 08:43 575K
20260502T06Z_MSC_RDPS_SpecificHumidity_IsbL-0500_RLatLon0.09_PT018H.grib2 2026-05-02 08:43 513K
20260502T06Z_MSC_RDPS_SpecificHumidity_IsbL-0550_RLatLon0.09_PT018H.grib2 2026-05-02 08:43 587K
20260502T06Z_MSC_RDPS_SpecificHumidity_IsbL-0600_RLatLon0.09_PT018H.grib2 2026-05-02 08:43 641K
20260502T06Z_MSC_RDPS_SpecificHumidity_IsbL-0650_RLatLon0.09_PT018H.grib2 2026-05-02 08:43 561K
20260502T06Z_MSC_RDPS_SpecificHumidity_IsbL-0700_RLatLon0.09_PT018H.grib2 2026-05-02 08:43 605K
20260502T06Z_MSC_RDPS_SpecificHumidity_IsbL-0750_RLatLon0.09_PT018H.grib2 2026-05-02 08:43 657K
20260502T06Z_MSC_RDPS_SpecificHumidity_IsbL-0800_RLatLon0.09_PT018H.grib2 2026-05-02 08:43 735K
20260502T06Z_MSC_RDPS_SpecificHumidity_IsbL-0850_RLatLon0.09_PT018H.grib2 2026-05-02 08:43 809K
20260502T06Z_MSC_RDPS_SpecificHumidity_IsbL-0875_RLatLon0.09_PT018H.grib2 2026-05-02 08:43 836K
20260502T06Z_MSC_RDPS_SpecificHumidity_IsbL-0900_RLatLon0.09_PT018H.grib2 2026-05-02 08:43 848K
20260502T06Z_MSC_RDPS_SpecificHumidity_IsbL-0925_RLatLon0.09_PT018H.grib2 2026-05-02 08:43 707K
20260502T06Z_MSC_RDPS_SpecificHumidity_IsbL-0950_RLatLon0.09_PT018H.grib2 2026-05-02 08:43 707K
20260502T06Z_MSC_RDPS_SpecificHumidity_IsbL-0970_RLatLon0.09_PT018H.grib2 2026-05-02 08:43 697K
20260502T06Z_MSC_RDPS_SpecificHumidity_IsbL-0985_RLatLon0.09_PT018H.grib2 2026-05-02 08:43 689K
20260502T06Z_MSC_RDPS_SpecificHumidity_IsbL-1000_RLatLon0.09_PT018H.grib2 2026-05-02 08:43 684K
20260502T06Z_MSC_RDPS_SpecificHumidity_IsbL-1015_RLatLon0.09_PT018H.grib2 2026-05-02 08:43 672K
20260502T06Z_MSC_RDPS_SpecificHumidity_Sfc_RLatLon0.09_PT018H.grib2 2026-05-02 08:43 333K
20260502T06Z_MSC_RDPS_StormRelativeHelicity_EtaL-10000_RLatLon0.09_PT018H.grib2 2026-05-02 08:43 1.1M
20260502T06Z_MSC_RDPS_StormSeverityIndex_EtaL-10000_RLatLon0.09_PT018H.grib2 2026-05-02 08:43 1.2M
20260502T06Z_MSC_RDPS_Thickness_IsbL-0850to0700_RLatLon0.09_PT018H.grib2 2026-05-02 08:43 177K
20260502T06Z_MSC_RDPS_Thickness_IsbL-1000to0500_RLatLon0.09_PT018H.grib2 2026-05-02 08:43 196K
20260502T06Z_MSC_RDPS_Thickness_IsbL-1000to0850_RLatLon0.09_PT018H.grib2 2026-05-02 08:43 184K
20260502T06Z_MSC_RDPS_TotalCloudCover_Sfc_RLatLon0.09_PT018H.grib2 2026-05-02 08:43 652K
20260502T06Z_MSC_RDPS_TotalTotalsIndex_Sfc_RLatLon0.09_PT018H.grib2 2026-05-02 08:43 2.3M
20260502T06Z_MSC_RDPS_UVIndex-ClearSky_Sfc_RLatLon0.09_PT018H.grib2 2026-05-02 08:43 188K
20260502T06Z_MSC_RDPS_UVIndex_Sfc_RLatLon0.09_PT018H.grib2 2026-05-02 08:43 391K
20260502T06Z_MSC_RDPS_UpwardLongwaveRadiationFlux_NTAtm_RLatLon0.09_PT018H.grib2 2026-05-02 08:43 492K
20260502T06Z_MSC_RDPS_UpwardShortwaveRadiationFlux_NTAtm_RLatLon0.09_PT018H.grib2 2026-05-02 08:43 336K
20260502T06Z_MSC_RDPS_VerticalVelocity_IsbL-0250_RLatLon0.09_PT018H.grib2 2026-05-02 08:43 453K
20260502T06Z_MSC_RDPS_VerticalVelocity_IsbL-0500_RLatLon0.09_PT018H.grib2 2026-05-02 08:43 539K
20260502T06Z_MSC_RDPS_VerticalVelocity_IsbL-0700_RLatLon0.09_PT018H.grib2 2026-05-02 08:43 597K
20260502T06Z_MSC_RDPS_VerticalVelocity_IsbL-0850_RLatLon0.09_PT018H.grib2 2026-05-02 08:43 698K
20260502T06Z_MSC_RDPS_VerticalWindShear_EtaL-6500_RLatLon0.09_PT018H.grib2 2026-05-02 08:43 1.2M
20260502T06Z_MSC_RDPS_WindChill_Sfc_RLatLon0.09_PT018H.grib2 2026-05-02 08:43 1.1M
20260502T06Z_MSC_RDPS_WindDir_AGL-10m_RLatLon0.09_PT018H.grib2 2026-05-02 08:43 944K
20260502T06Z_MSC_RDPS_WindDir_AGL-120m_RLatLon0.09_PT018H.grib2 2026-05-02 08:43 592K
20260502T06Z_MSC_RDPS_WindDir_AGL-40m_RLatLon0.09_PT018H.grib2 2026-05-02 08:43 616K
20260502T06Z_MSC_RDPS_WindDir_AGL-80m_RLatLon0.09_PT018H.grib2 2026-05-02 08:43 601K
20260502T06Z_MSC_RDPS_WindDir_IsbL-0001_RLatLon0.09_PT018H.grib2 2026-05-02 08:43 297K
20260502T06Z_MSC_RDPS_WindDir_IsbL-0005_RLatLon0.09_PT018H.grib2 2026-05-02 08:43 357K
20260502T06Z_MSC_RDPS_WindDir_IsbL-0010_RLatLon0.09_PT018H.grib2 2026-05-02 08:43 383K
20260502T06Z_MSC_RDPS_WindDir_IsbL-0020_RLatLon0.09_PT018H.grib2 2026-05-02 08:43 431K
20260502T06Z_MSC_RDPS_WindDir_IsbL-0030_RLatLon0.09_PT018H.grib2 2026-05-02 08:43 413K
20260502T06Z_MSC_RDPS_WindDir_IsbL-0050_RLatLon0.09_PT018H.grib2 2026-05-02 08:43 410K
20260502T06Z_MSC_RDPS_WindDir_IsbL-0100_RLatLon0.09_PT018H.grib2 2026-05-02 08:43 406K
20260502T06Z_MSC_RDPS_WindDir_IsbL-0150_RLatLon0.09_PT018H.grib2 2026-05-02 08:43 410K
20260502T06Z_MSC_RDPS_WindDir_IsbL-0175_RLatLon0.09_PT018H.grib2 2026-05-02 08:43 424K
20260502T06Z_MSC_RDPS_WindDir_IsbL-0200_RLatLon0.09_PT018H.grib2 2026-05-02 08:43 438K
20260502T06Z_MSC_RDPS_WindDir_IsbL-0225_RLatLon0.09_PT018H.grib2 2026-05-02 08:43 444K
20260502T06Z_MSC_RDPS_WindDir_IsbL-0250_RLatLon0.09_PT018H.grib2 2026-05-02 08:43 448K
20260502T06Z_MSC_RDPS_WindDir_IsbL-0275_RLatLon0.09_PT018H.grib2 2026-05-02 08:43 469K
20260502T06Z_MSC_RDPS_WindDir_IsbL-0300_RLatLon0.09_PT018H.grib2 2026-05-02 08:43 470K
20260502T06Z_MSC_RDPS_WindDir_IsbL-0350_RLatLon0.09_PT018H.grib2 2026-05-02 08:43 502K
20260502T06Z_MSC_RDPS_WindDir_IsbL-0400_RLatLon0.09_PT018H.grib2 2026-05-02 08:43 517K
20260502T06Z_MSC_RDPS_WindDir_IsbL-0450_RLatLon0.09_PT018H.grib2 2026-05-02 08:43 527K
20260502T06Z_MSC_RDPS_WindDir_IsbL-0500_RLatLon0.09_PT018H.grib2 2026-05-02 08:43 542K
20260502T06Z_MSC_RDPS_WindDir_IsbL-0550_RLatLon0.09_PT018H.grib2 2026-05-02 08:43 557K
20260502T06Z_MSC_RDPS_WindDir_IsbL-0600_RLatLon0.09_PT018H.grib2 2026-05-02 08:43 580K
20260502T06Z_MSC_RDPS_WindDir_IsbL-0650_RLatLon0.09_PT018H.grib2 2026-05-02 08:43 620K
20260502T06Z_MSC_RDPS_WindDir_IsbL-0700_RLatLon0.09_PT018H.grib2 2026-05-02 08:43 664K
20260502T06Z_MSC_RDPS_WindDir_IsbL-0750_RLatLon0.09_PT018H.grib2 2026-05-02 08:43 708K
20260502T06Z_MSC_RDPS_WindDir_IsbL-0800_RLatLon0.09_PT018H.grib2 2026-05-02 08:43 768K
20260502T06Z_MSC_RDPS_WindDir_IsbL-0850_RLatLon0.09_PT018H.grib2 2026-05-02 08:43 846K
20260502T06Z_MSC_RDPS_WindDir_IsbL-0875_RLatLon0.09_PT018H.grib2 2026-05-02 08:43 874K
20260502T06Z_MSC_RDPS_WindDir_IsbL-0900_RLatLon0.09_PT018H.grib2 2026-05-02 08:43 890K
20260502T06Z_MSC_RDPS_WindDir_IsbL-0925_RLatLon0.09_PT018H.grib2 2026-05-02 08:43 899K
20260502T06Z_MSC_RDPS_WindDir_IsbL-0950_RLatLon0.09_PT018H.grib2 2026-05-02 08:43 897K
20260502T06Z_MSC_RDPS_WindDir_IsbL-0970_RLatLon0.09_PT018H.grib2 2026-05-02 08:43 906K
20260502T06Z_MSC_RDPS_WindDir_IsbL-0985_RLatLon0.09_PT018H.grib2 2026-05-02 08:43 913K
20260502T06Z_MSC_RDPS_WindDir_IsbL-1000_RLatLon0.09_PT018H.grib2 2026-05-02 08:43 922K
20260502T06Z_MSC_RDPS_WindDir_IsbL-1015_RLatLon0.09_PT018H.grib2 2026-05-02 08:43 937K
20260502T06Z_MSC_RDPS_WindGust-Max_AGL-10m_RLatLon0.09_PT018H.grib2 2026-05-02 08:43 1.0M
20260502T06Z_MSC_RDPS_WindGust-Min_AGL-10m_RLatLon0.09_PT018H.grib2 2026-05-02 08:43 1.0M
20260502T06Z_MSC_RDPS_WindGust_AGL-10m_RLatLon0.09_PT018H.grib2 2026-05-02 08:43 1.0M
20260502T06Z_MSC_RDPS_WindSpeed_AGL-10m_RLatLon0.09_PT018H.grib2 2026-05-02 08:43 832K
20260502T06Z_MSC_RDPS_WindSpeed_AGL-120m_RLatLon0.09_PT018H.grib2 2026-05-02 08:43 529K
20260502T06Z_MSC_RDPS_WindSpeed_AGL-40m_RLatLon0.09_PT018H.grib2 2026-05-02 08:43 535K
20260502T06Z_MSC_RDPS_WindSpeed_AGL-80m_RLatLon0.09_PT018H.grib2 2026-05-02 08:43 531K
20260502T06Z_MSC_RDPS_WindSpeed_IsbL-0001_RLatLon0.09_PT018H.grib2 2026-05-02 08:43 248K
20260502T06Z_MSC_RDPS_WindSpeed_IsbL-0005_RLatLon0.09_PT018H.grib2 2026-05-02 08:43 340K
20260502T06Z_MSC_RDPS_WindSpeed_IsbL-0010_RLatLon0.09_PT018H.grib2 2026-05-02 08:43 393K
20260502T06Z_MSC_RDPS_WindSpeed_IsbL-0020_RLatLon0.09_PT018H.grib2 2026-05-02 08:43 317K
20260502T06Z_MSC_RDPS_WindSpeed_IsbL-0030_RLatLon0.09_PT018H.grib2 2026-05-02 08:43 315K
20260502T06Z_MSC_RDPS_WindSpeed_IsbL-0050_RLatLon0.09_PT018H.grib2 2026-05-02 08:43 346K
20260502T06Z_MSC_RDPS_WindSpeed_IsbL-0100_RLatLon0.09_PT018H.grib2 2026-05-02 08:43 476K
20260502T06Z_MSC_RDPS_WindSpeed_IsbL-0150_RLatLon0.09_PT018H.grib2 2026-05-02 08:43 385K
20260502T06Z_MSC_RDPS_WindSpeed_IsbL-0175_RLatLon0.09_PT018H.grib2 2026-05-02 08:43 406K
20260502T06Z_MSC_RDPS_WindSpeed_IsbL-0200_RLatLon0.09_PT018H.grib2 2026-05-02 08:43 443K
20260502T06Z_MSC_RDPS_WindSpeed_IsbL-0225_RLatLon0.09_PT018H.grib2 2026-05-02 08:43 450K
20260502T06Z_MSC_RDPS_WindSpeed_IsbL-0250_RLatLon0.09_PT018H.grib2 2026-05-02 08:43 452K
20260502T06Z_MSC_RDPS_WindSpeed_IsbL-0275_RLatLon0.09_PT018H.grib2 2026-05-02 08:43 470K
20260502T06Z_MSC_RDPS_WindSpeed_IsbL-0300_RLatLon0.09_PT018H.grib2 2026-05-02 08:43 468K
20260502T06Z_MSC_RDPS_WindSpeed_IsbL-0350_RLatLon0.09_PT018H.grib2 2026-05-02 08:43 479K
20260502T06Z_MSC_RDPS_WindSpeed_IsbL-0400_RLatLon0.09_PT018H.grib2 2026-05-02 08:43 482K
20260502T06Z_MSC_RDPS_WindSpeed_IsbL-0450_RLatLon0.09_PT018H.grib2 2026-05-02 08:43 466K
20260502T06Z_MSC_RDPS_WindSpeed_IsbL-0500_RLatLon0.09_PT018H.grib2 2026-05-02 08:43 465K
20260502T06Z_MSC_RDPS_WindSpeed_IsbL-0550_RLatLon0.09_PT018H.grib2 2026-05-02 08:43 588K
20260502T06Z_MSC_RDPS_WindSpeed_IsbL-0600_RLatLon0.09_PT018H.grib2 2026-05-02 08:43 598K
20260502T06Z_MSC_RDPS_WindSpeed_IsbL-0650_RLatLon0.09_PT018H.grib2 2026-05-02 08:43 661K
20260502T06Z_MSC_RDPS_WindSpeed_IsbL-0700_RLatLon0.09_PT018H.grib2 2026-05-02 08:43 686K
20260502T06Z_MSC_RDPS_WindSpeed_IsbL-0750_RLatLon0.09_PT018H.grib2 2026-05-02 08:43 715K
20260502T06Z_MSC_RDPS_WindSpeed_IsbL-0800_RLatLon0.09_PT018H.grib2 2026-05-02 08:43 758K
20260502T06Z_MSC_RDPS_WindSpeed_IsbL-0850_RLatLon0.09_PT018H.grib2 2026-05-02 08:43 768K
20260502T06Z_MSC_RDPS_WindSpeed_IsbL-0875_RLatLon0.09_PT018H.grib2 2026-05-02 08:43 788K
20260502T06Z_MSC_RDPS_WindSpeed_IsbL-0900_RLatLon0.09_PT018H.grib2 2026-05-02 08:43 848K
20260502T06Z_MSC_RDPS_WindSpeed_IsbL-0925_RLatLon0.09_PT018H.grib2 2026-05-02 08:43 859K
20260502T06Z_MSC_RDPS_WindSpeed_IsbL-0950_RLatLon0.09_PT018H.grib2 2026-05-02 08:43 858K
20260502T06Z_MSC_RDPS_WindSpeed_IsbL-0970_RLatLon0.09_PT018H.grib2 2026-05-02 08:43 856K
20260502T06Z_MSC_RDPS_WindSpeed_IsbL-0985_RLatLon0.09_PT018H.grib2 2026-05-02 08:43 851K
20260502T06Z_MSC_RDPS_WindSpeed_IsbL-1000_RLatLon0.09_PT018H.grib2 2026-05-02 08:43 844K
20260502T06Z_MSC_RDPS_WindSpeed_IsbL-1015_RLatLon0.09_PT018H.grib2 2026-05-02 08:43 834K
20260502T06Z_MSC_RDPS_WindU_AGL-10m_RLatLon0.09_PT018H.grib2 2026-05-02 08:43 428K
20260502T06Z_MSC_RDPS_WindU_AGL-120m_RLatLon0.09_PT018H.grib2 2026-05-02 08:43 529K
20260502T06Z_MSC_RDPS_WindU_AGL-40m_RLatLon0.09_PT018H.grib2 2026-05-02 08:43 533K
20260502T06Z_MSC_RDPS_WindU_AGL-80m_RLatLon0.09_PT018H.grib2 2026-05-02 08:43 531K
20260502T06Z_MSC_RDPS_WindU_IsbL-0001_RLatLon0.09_PT018H.grib2 2026-05-02 08:43 239K
20260502T06Z_MSC_RDPS_WindU_IsbL-0005_RLatLon0.09_PT018H.grib2 2026-05-02 08:43 280K
20260502T06Z_MSC_RDPS_WindU_IsbL-0010_RLatLon0.09_PT018H.grib2 2026-05-02 08:43 291K
20260502T06Z_MSC_RDPS_WindU_IsbL-0020_RLatLon0.09_PT018H.grib2 2026-05-02 08:43 348K
20260502T06Z_MSC_RDPS_WindU_IsbL-0030_RLatLon0.09_PT018H.grib2 2026-05-02 08:43 349K
20260502T06Z_MSC_RDPS_WindU_IsbL-0050_RLatLon0.09_PT018H.grib2 2026-05-02 08:43 375K
20260502T06Z_MSC_RDPS_WindU_IsbL-0100_RLatLon0.09_PT018H.grib2 2026-05-02 08:43 430K
20260502T06Z_MSC_RDPS_WindU_IsbL-0150_RLatLon0.09_PT018H.grib2 2026-05-02 08:43 399K
20260502T06Z_MSC_RDPS_WindU_IsbL-0175_RLatLon0.09_PT018H.grib2 2026-05-02 08:43 419K
20260502T06Z_MSC_RDPS_WindU_IsbL-0200_RLatLon0.09_PT018H.grib2 2026-05-02 08:43 338K
20260502T06Z_MSC_RDPS_WindU_IsbL-0225_RLatLon0.09_PT018H.grib2 2026-05-02 08:43 344K
20260502T06Z_MSC_RDPS_WindU_IsbL-0250_RLatLon0.09_PT018H.grib2 2026-05-02 08:43 344K
20260502T06Z_MSC_RDPS_WindU_IsbL-0275_RLatLon0.09_PT018H.grib2 2026-05-02 08:43 358K
20260502T06Z_MSC_RDPS_WindU_IsbL-0300_RLatLon0.09_PT018H.grib2 2026-05-02 08:43 355K
20260502T06Z_MSC_RDPS_WindU_IsbL-0350_RLatLon0.09_PT018H.grib2 2026-05-02 08:43 365K
20260502T06Z_MSC_RDPS_WindU_IsbL-0400_RLatLon0.09_PT018H.grib2 2026-05-02 08:43 471K
20260502T06Z_MSC_RDPS_WindU_IsbL-0450_RLatLon0.09_PT018H.grib2 2026-05-02 08:43 471K
20260502T06Z_MSC_RDPS_WindU_IsbL-0500_RLatLon0.09_PT018H.grib2 2026-05-02 08:43 471K
20260502T06Z_MSC_RDPS_WindU_IsbL-0550_RLatLon0.09_PT018H.grib2 2026-05-02 08:43 476K
20260502T06Z_MSC_RDPS_WindU_IsbL-0600_RLatLon0.09_PT018H.grib2 2026-05-02 08:43 486K
20260502T06Z_MSC_RDPS_WindU_IsbL-0650_RLatLon0.09_PT018H.grib2 2026-05-02 08:43 487K
20260502T06Z_MSC_RDPS_WindU_IsbL-0700_RLatLon0.09_PT018H.grib2 2026-05-02 08:43 510K
20260502T06Z_MSC_RDPS_WindU_IsbL-0750_RLatLon0.09_PT018H.grib2 2026-05-02 08:43 661K
20260502T06Z_MSC_RDPS_WindU_IsbL-0800_RLatLon0.09_PT018H.grib2 2026-05-02 08:43 572K
20260502T06Z_MSC_RDPS_WindU_IsbL-0850_RLatLon0.09_PT018H.grib2 2026-05-02 08:43 622K
20260502T06Z_MSC_RDPS_WindU_IsbL-0875_RLatLon0.09_PT018H.grib2 2026-05-02 08:43 640K
20260502T06Z_MSC_RDPS_WindU_IsbL-0900_RLatLon0.09_PT018H.grib2 2026-05-02 08:43 651K
20260502T06Z_MSC_RDPS_WindU_IsbL-0925_RLatLon0.09_PT018H.grib2 2026-05-02 08:43 658K
20260502T06Z_MSC_RDPS_WindU_IsbL-0950_RLatLon0.09_PT018H.grib2 2026-05-02 08:43 654K
20260502T06Z_MSC_RDPS_WindU_IsbL-0970_RLatLon0.09_PT018H.grib2 2026-05-02 08:43 654K
20260502T06Z_MSC_RDPS_WindU_IsbL-0985_RLatLon0.09_PT018H.grib2 2026-05-02 08:43 789K
20260502T06Z_MSC_RDPS_WindU_IsbL-1000_RLatLon0.09_PT018H.grib2 2026-05-02 08:43 782K
20260502T06Z_MSC_RDPS_WindU_IsbL-1015_RLatLon0.09_PT018H.grib2 2026-05-02 08:43 820K
20260502T06Z_MSC_RDPS_WindV_AGL-10m_RLatLon0.09_PT018H.grib2 2026-05-02 08:43 426K
20260502T06Z_MSC_RDPS_WindV_AGL-120m_RLatLon0.09_PT018H.grib2 2026-05-02 08:43 410K
20260502T06Z_MSC_RDPS_WindV_AGL-40m_RLatLon0.09_PT018H.grib2 2026-05-02 08:43 412K
20260502T06Z_MSC_RDPS_WindV_AGL-80m_RLatLon0.09_PT018H.grib2 2026-05-02 08:43 411K
20260502T06Z_MSC_RDPS_WindV_IsbL-0001_RLatLon0.09_PT018H.grib2 2026-05-02 08:43 242K
20260502T06Z_MSC_RDPS_WindV_IsbL-0005_RLatLon0.09_PT018H.grib2 2026-05-02 08:43 283K
20260502T06Z_MSC_RDPS_WindV_IsbL-0010_RLatLon0.09_PT018H.grib2 2026-05-02 08:43 383K
20260502T06Z_MSC_RDPS_WindV_IsbL-0020_RLatLon0.09_PT018H.grib2 2026-05-02 08:43 311K
20260502T06Z_MSC_RDPS_WindV_IsbL-0030_RLatLon0.09_PT018H.grib2 2026-05-02 08:43 312K
20260502T06Z_MSC_RDPS_WindV_IsbL-0050_RLatLon0.09_PT018H.grib2 2026-05-02 08:43 340K
20260502T06Z_MSC_RDPS_WindV_IsbL-0100_RLatLon0.09_PT018H.grib2 2026-05-02 08:43 428K
20260502T06Z_MSC_RDPS_WindV_IsbL-0150_RLatLon0.09_PT018H.grib2 2026-05-02 08:43 397K
20260502T06Z_MSC_RDPS_WindV_IsbL-0175_RLatLon0.09_PT018H.grib2 2026-05-02 08:43 418K
20260502T06Z_MSC_RDPS_WindV_IsbL-0200_RLatLon0.09_PT018H.grib2 2026-05-02 08:43 336K
20260502T06Z_MSC_RDPS_WindV_IsbL-0225_RLatLon0.09_PT018H.grib2 2026-05-02 08:43 341K
20260502T06Z_MSC_RDPS_WindV_IsbL-0250_RLatLon0.09_PT018H.grib2 2026-05-02 08:43 342K
20260502T06Z_MSC_RDPS_WindV_IsbL-0275_RLatLon0.09_PT018H.grib2 2026-05-02 08:43 356K
20260502T06Z_MSC_RDPS_WindV_IsbL-0300_RLatLon0.09_PT018H.grib2 2026-05-02 08:43 378K
20260502T06Z_MSC_RDPS_WindV_IsbL-0350_RLatLon0.09_PT018H.grib2 2026-05-02 08:43 362K
20260502T06Z_MSC_RDPS_WindV_IsbL-0400_RLatLon0.09_PT018H.grib2 2026-05-02 08:43 364K
20260502T06Z_MSC_RDPS_WindV_IsbL-0450_RLatLon0.09_PT018H.grib2 2026-05-02 08:43 469K
20260502T06Z_MSC_RDPS_WindV_IsbL-0500_RLatLon0.09_PT018H.grib2 2026-05-02 08:43 470K
20260502T06Z_MSC_RDPS_WindV_IsbL-0550_RLatLon0.09_PT018H.grib2 2026-05-02 08:43 474K
20260502T06Z_MSC_RDPS_WindV_IsbL-0600_RLatLon0.09_PT018H.grib2 2026-05-02 08:43 467K
20260502T06Z_MSC_RDPS_WindV_IsbL-0650_RLatLon0.09_PT018H.grib2 2026-05-02 08:43 485K
20260502T06Z_MSC_RDPS_WindV_IsbL-0700_RLatLon0.09_PT018H.grib2 2026-05-02 08:43 523K
20260502T06Z_MSC_RDPS_WindV_IsbL-0750_RLatLon0.09_PT018H.grib2 2026-05-02 08:43 546K
20260502T06Z_MSC_RDPS_WindV_IsbL-0800_RLatLon0.09_PT018H.grib2 2026-05-02 08:43 568K
20260502T06Z_MSC_RDPS_WindV_IsbL-0850_RLatLon0.09_PT018H.grib2 2026-05-02 08:43 617K
20260502T06Z_MSC_RDPS_WindV_IsbL-0875_RLatLon0.09_PT018H.grib2 2026-05-02 08:43 635K
20260502T06Z_MSC_RDPS_WindV_IsbL-0900_RLatLon0.09_PT018H.grib2 2026-05-02 08:43 652K
20260502T06Z_MSC_RDPS_WindV_IsbL-0925_RLatLon0.09_PT018H.grib2 2026-05-02 08:43 652K
20260502T06Z_MSC_RDPS_WindV_IsbL-0950_RLatLon0.09_PT018H.grib2 2026-05-02 08:43 648K
20260502T06Z_MSC_RDPS_WindV_IsbL-0970_RLatLon0.09_PT018H.grib2 2026-05-02 08:43 647K
20260502T06Z_MSC_RDPS_WindV_IsbL-0985_RLatLon0.09_PT018H.grib2 2026-05-02 08:43 782K
20260502T06Z_MSC_RDPS_WindV_IsbL-1000_RLatLon0.09_PT018H.grib2 2026-05-02 08:43 776K
20260502T06Z_MSC_RDPS_WindV_IsbL-1015_RLatLon0.09_PT018H.grib2 2026-05-02 08:43 769K